GFSGL_sfc_dewp_324.txt.gz
Dewpoint
63 64 64 64 63 62 60 60 60 57 57 56 56 57 58 58 58 57 57 57 57 57 53 56 58 58 58 56 56 55 52 52 48 49 52 52 51 51 55 55 55 54 54
62 63 63 62 62 61 61 59 59 58 57 57 57 58 57 57 57 57 57 57 55 54 55 55 55 57 57 57 57 54 53 52 50 48 47 50 50 51 54 54 54 55 54
63 62 62 61 60 61 61 61 60 58 57 57 57 57 56 55 56 56 56 55 54 53 54 55 57 57 58 57 57 56 54 53 51 48 47 49 49 53 52 53 53 54 54
63 62 61 61 60 60 60 59 58 58 57 56 56 55 55 55 55 53 52 54 55 56 57 57 58 58 56 56 56 57 54 52 51 49 48 47 49 51 52 52 52 53 53
61 60 61 61 60 60 58 58 58 57 56 56 55 54 55 55 55 55 55 55 55 56 57 58 57 58 62 62 59 56 54 52 50 49 48 47 47 48 48 52 52 53 52
61 61 61 60 59 58 58 57 55 55 54 54 53 54 55 55 58 60 57 54 54 56 55 54 55 57 58 61 62 62 60 54 52 49 48 47 46 48 50 51 53 52 48
62 62 60 60 59 58 57 55 54 54 54 55 55 56 56 57 59 59 61 56 54 53 53 54 55 56 59 58 59 60 59 61 58 51 49 48 47 47 49 51 51 48 46
60 60 60 59 58 57 56 55 55 55 55 56 56 57 57 58 59 58 60 58 55 54 55 56 56 57 58 58 58 57 57 57 57 58 52 51 49 49 51 51 51 48 49
59 59 59 58 57 57 56 56 56 56 57 57 57 57 56 56 57 57 57 56 56 56 57 58 58 58 58 59 58 57 57 56 57 58 58 57 57 56 55 51 49 48 48
59 58 58 58 58 58 57 57 57 57 53 55 55 56 57 57 56 56 57 56 55 55 56 57 58 58 57 56 55 54 54 55 56 55 53 55 55 54 57 53 49 47 48
58 58 58 58 57 57 56 56 56 55 55 54 55 55 56 57 57 56 55 56 56 55 56 55 56 56 54 52 52 52 53 53 55 55 54 53 52 52 51 49 47 48 49
58 57 57 57 56 55 55 55 58 55 54 54 55 55 56 57 56 56 55 55 57 56 56 56 56 54 52 51 52 52 52 54 53 53 52 52 51 51 50 49 48 49 52
55 55 56 56 56 56 55 56 55 55 55 55 55 54 53 54 55 55 54 54 55 56 57 56 55 53 52 53 54 53 53 53 52 52 51 50 50 50 49 48 49 49 52
55 55 56 56 56 57 57 55 56 56 55 55 55 55 55 54 54 54 53 54 55 56 57 56 56 55 54 54 54 53 54 54 53 52 51 51 51 50 50 52 51 51 50
56 56 57 57 57 57 57 57 57 56 55 54 54 54 52 52 51 49 48 53 54 52 50 49 48 49 49 50 51 51 52 52 53 53 53 53 54 55 55 54 54 53 53
56 57 57 55 52 51 52 53 54 53 51 49 49 49 51 49 46 43 44 43 44 45 46 47 47 49 49 51 51 53 54 54 54 54 55 55 54 55 55 55 55 54 53
56 56 56 55 53 52 52 50 49 49 48 48 46 46 44 46 43 41 41 42 44 47 47 47 51 52 52 53 55 54 53 54 54 54 53 54 54 55 54 54 53 53 53
57 55 56 55 53 52 51 50 51 51 51 50 48 46 45 42 42 41 41 43 49 48 49 51 53 55 55 55 53 53 53 53 53 53 53 55 54 52 51 52 51 51 52
57 57 57 55 54 53 52 52 52 52 52 51 50 48 45 42 41 41 43 51 53 53 52 53 55 56 55 54 52 52 52 52 51 51 52 53 51 51 51 49 49 48 49
59 57 56 55 54 54 54 53 53 52 51 50 51 52 54 52 54 53 51 52 53 54 55 55 55 54 53 53 53 52 52 52 51 52 51 50 46 46 46 45 46 45 45
58 57 57 55 54 53 52 51 51 51 51 51 54 55 49 55 54 54 53 54 55 55 55 54 54 53 53 52 53 54 52 52 52 48 42 40 39 39 40 41 43 44 44
53 52 51 51 51 51 51 52 52 52 54 53 53 54 49 52 54 54 54 55 55 55 54 52 51 51 51 51 51 50 49 49 45 42 38 37 37 37 37 38 38 39 40
51 52 50 49 48 49 52 55 56 57 56 55 56 55 55 55 55 54 54 55 53 53 52 51 51 51 51 51 51 50 48 44 44 40 36 36 37 36 36 36 37 37 37
52 51 49 48 49 54 55 55 55 54 55 55 55 54 51 50 50 51 51 51 51 51 50 49 48 48 50 50 48 42 42 40 39 37 39 37 36 36 35 36 36 37 38
53 52 50 50 53 55 56 55 55 56 55 53 51 49 48 48 47 46 46 47 45 45 44 44 45 44 45 45 41 38 35 33 35 35 36 37 38 37 37 36 36 37 38
51 51 51 52 54 55 57 56 55 53 52 49 47 47 46 46 46 45 45 44 42 42 42 43 42 44 43 41 37 33 31 31 33 33 36 36 35 36 36 36 36 35 35

GFSGL_sfc_dewp_327.txt.gz
Dewpoint
64 65 64 64 64 64 63 62 59 57 56 55 56 57 57 57 57 57 56 57 57 57 56 57 56 58 57 56 55 53 52 50 46 49 53 50 50 49 53 55 55 54 55
64 64 64 63 62 61 60 59 57 56 56 55 56 57 57 57 56 56 57 56 55 54 55 56 55 57 57 58 57 55 53 51 50 48 47 48 49 49 53 53 53 54 54
64 63 62 61 60 60 61 60 60 57 56 56 57 56 55 55 55 55 55 54 53 52 53 55 56 57 55 55 56 56 55 53 51 49 47 49 48 51 51 52 52 53 54
62 61 61 60 60 60 60 59 58 56 56 55 55 54 54 54 55 53 51 52 53 54 55 56 57 57 55 55 56 56 55 53 51 49 49 47 47 49 51 51 50 52 53
62 61 61 60 60 60 59 58 57 56 55 54 54 54 54 53 53 53 53 53 53 53 55 56 57 57 60 61 59 57 54 53 52 50 49 48 47 47 46 48 51 51 52
60 60 61 60 60 58 57 57 56 55 54 54 53 53 52 53 57 59 57 53 53 53 54 54 53 56 55 59 61 61 60 55 52 51 50 48 48 47 48 49 50 50 47
61 61 60 59 58 57 56 55 53 53 53 53 53 53 54 55 58 59 60 58 55 54 54 53 53 55 58 57 58 60 60 60 60 54 52 51 50 49 48 48 50 50 48
60 59 59 58 57 57 55 54 53 53 53 54 55 55 55 56 58 58 59 58 57 55 54 53 54 54 56 57 57 56 57 57 57 57 57 55 53 52 49 49 49 49 49
59 58 58 58 57 56 55 54 53 54 54 55 55 55 55 56 57 57 57 56 56 55 55 55 55 56 57 58 57 56 55 55 56 58 58 58 57 57 56 51 51 48 48
59 59 59 58 57 56 56 55 55 55 56 55 54 55 56 55 55 55 55 56 55 55 55 55 58 58 57 56 55 54 52 52 52 53 53 54 56 56 57 55 53 49 47
59 59 58 58 57 57 57 56 55 55 55 54 54 53 54 55 55 54 54 55 55 55 55 55 55 56 55 53 53 53 52 53 54 54 54 54 53 53 53 52 53 52 49
58 58 58 57 57 56 55 55 55 55 54 53 53 53 55 55 55 54 54 54 56 56 55 55 55 54 52 52 52 53 52 53 53 53 53 52 52 52 52 52 50 50 49
56 56 56 56 56 55 55 54 54 54 54 53 53 54 54 54 54 54 53 53 54 55 56 56 55 53 51 52 53 53 53 53 53 51 51 51 51 51 51 50 49 49 48
54 54 55 55 55 56 56 55 55 55 54 54 54 54 54 54 54 54 53 53 53 55 56 56 56 55 54 55 54 54 53 53 52 52 52 52 52 51 51 51 51 51 51
54 54 54 55 55 55 56 56 56 56 55 54 54 54 53 53 52 49 50 50 49 51 52 51 50 48 48 48 50 51 51 52 52 52 52 52 52 53 53 53 53 53 52
54 55 55 56 56 55 53 51 52 53 51 49 48 50 54 50 48 45 44 44 44 47 47 45 45 46 47 49 50 50 53 55 53 53 52 51 52 51 53 53 54 53 51
55 55 56 55 55 53 52 51 50 49 48 46 45 45 45 48 46 44 43 42 42 44 46 46 48 49 50 52 51 53 55 55 53 52 52 52 53 53 53 52 51 51 50
58 53 55 56 55 54 53 51 50 49 49 51 48 46 44 42 42 41 41 42 45 45 46 48 50 51 52 53 54 54 53 52 52 51 51 51 54 53 52 51 49 48 48
58 57 56 56 55 54 53 52 52 52 52 52 52 49 47 42 42 41 41 48 50 51 51 51 51 52 53 53 52 51 51 51 50 50 51 52 53 52 50 47 46 45 46
60 57 56 56 55 55 54 53 53 53 53 52 52 51 52 50 52 52 49 49 50 51 52 52 53 52 52 51 51 50 51 50 51 52 52 50 46 43 42 41 41 41 41
57 57 57 57 55 55 54 53 53 52 51 51 52 53 50 54 53 53 53 52 53 53 53 53 52 50 50 50 49 50 50 49 49 50 48 44 41 37 37 37 38 39 39
58 57 57 55 55 52 51 52 51 52 53 53 53 53 48 52 53 53 53 53 55 54 54 52 50 49 49 49 49 49 48 48 48 46 42 37 36 36 35 35 35 36 36
55 54 53 52 51 50 49 49 52 54 54 55 54 54 54 54 53 54 54 54 54 53 51 50 49 48 48 49 49 49 48 48 46 43 38 37 36 35 36 35 35 35 36
54 53 51 51 49 50 50 52 55 52 55 54 54 55 54 54 53 52 53 53 51 50 49 49 47 45 46 46 48 48 44 44 41 37 38 39 39 40 39 37 36 36 37
53 52 52 51 50 51 54 54 55 55 55 55 54 54 53 50 50 49 48 47 48 47 44 44 44 44 45 45 44 42 35 33 36 36 36 38 40 39 37 36 35 36 36
53 53 52 51 52 52 54 55 54 54 54 55 53 51 49 48 47 46 46 46 44 43 43 42 43 43 44 42 39 35 31 31 33 33 36 36 36 35 36 35 35 35 35

GFSGL_sfc_dewp_333.txt.gz
Dewpoint
68 69 68 66 65 66 66 66 63 62 61 60 60 60 61 61 61 60 60 58 59 61 61 62 61 62 55 51 51 51 52 49 46 46 51 55 56 53 53 55 55 56 54
69 68 66 67 67 66 64 62 61 60 59 60 60 61 61 60 61 59 58 59 59 59 60 61 61 59 62 61 57 59 57 58 53 56 57 54 57 58 56 57 52 47 53
65 65 65 64 64 63 61 60 59 59 60 60 61 61 61 60 59 60 60 59 58 58 60 60 61 60 60 58 60 59 58 57 58 55 54 56 56 56 56 58 57 57 53
64 64 63 63 62 61 61 60 60 61 60 61 61 60 59 60 59 59 59 58 57 57 58 60 60 60 58 60 59 60 59 58 59 56 54 54 55 57 56 54 53 55 55
63 62 61 62 62 61 62 62 61 61 61 60 59 57 58 58 55 58 56 55 56 56 57 58 59 59 59 58 54 58 60 58 56 55 53 53 53 53 54 53 53 53 56
62 61 61 61 62 62 61 61 61 60 59 59 57 57 57 50 56 56 56 56 57 58 58 58 58 58 58 60 60 61 61 60 59 54 52 53 59 58 55 55 53 52 49
61 61 61 61 61 61 61 62 60 59 59 59 58 57 57 57 57 58 60 60 59 59 60 59 58 54 58 59 59 60 60 61 61 61 60 59 59 59 60 59 58 57 55
61 61 61 61 61 62 62 60 59 58 58 57 58 59 60 59 58 58 59 61 61 62 61 61 61 60 61 60 59 58 58 57 58 58 60 61 61 61 62 61 61 60 58
61 62 62 62 61 60 59 58 57 58 59 59 60 61 61 61 57 57 59 60 59 61 60 61 61 61 59 58 59 59 59 56 55 58 59 59 59 59 58 57 55 53 51
62 62 62 61 60 59 58 59 59 59 60 58 60 61 60 62 58 55 57 56 57 55 59 59 59 59 57 57 59 59 58 55 54 55 57 58 59 60 59 60 56 53 52
63 63 63 62 62 62 61 61 61 61 61 62 62 62 62 61 61 55 54 58 56 55 55 55 57 56 55 53 55 59 59 59 59 59 57 56 56 56 55 58 59 57 53
63 63 63 63 61 60 62 63 63 63 62 62 61 60 57 61 57 55 54 54 58 58 57 56 57 55 53 52 54 54 54 56 57 57 55 54 54 52 53 56 60 59 58
64 63 63 63 62 62 63 63 60 61 58 57 55 55 55 56 59 54 53 53 54 56 57 56 55 53 52 52 52 53 54 56 56 55 53 52 52 53 58 58 59 61 61
63 63 63 63 62 62 60 59 57 56 55 55 55 56 55 56 57 57 58 57 55 56 56 56 56 55 55 54 56 56 57 56 55 52 52 54 55 55 55 55 55 54 52
62 61 60 59 59 59 59 57 57 60 57 56 55 55 54 53 54 53 53 56 57 55 54 55 54 54 54 54 53 53 53 54 54 54 54 54 54 55 55 57 56 54 53
59 57 55 54 54 55 55 57 55 53 52 50 49 52 53 51 49 47 46 45 45 46 51 53 53 54 53 52 52 54 54 55 56 56 55 54 54 55 55 54 56 55 53
59 56 55 54 54 55 56 56 56 54 49 47 46 46 46 48 46 45 44 44 44 44 51 54 54 53 53 54 55 55 55 55 58 54 53 55 54 55 56 54 55 52 52
60 53 56 56 56 56 57 57 57 56 54 52 48 47 44 43 43 42 42 43 50 47 53 53 54 55 55 57 57 55 53 53 51 50 52 55 56 55 55 55 55 53 48
58 56 57 57 59 57 58 58 57 57 56 55 55 51 51 43 43 42 42 52 55 55 55 55 56 57 57 57 55 54 54 51 51 53 54 54 55 56 55 55 52 47 44
58 57 57 58 58 58 58 57 56 57 57 56 55 54 56 53 55 56 54 55 55 56 56 57 57 58 57 55 53 51 50 50 51 50 48 48 50 52 49 46 41 37 38
56 56 57 57 57 57 57 56 56 55 55 55 55 54 50 55 54 55 56 56 57 57 57 57 56 56 55 53 51 49 48 47 46 47 46 47 50 47 45 41 38 38 41
57 57 57 57 56 57 56 56 55 55 55 55 54 53 47 54 55 56 58 58 58 58 58 58 57 56 52 50 50 46 46 47 46 46 47 46 47 46 42 39 38 40 41
59 58 57 57 57 55 56 55 54 55 54 53 53 53 52 55 55 56 57 57 57 57 58 58 56 52 51 50 50 49 44 45 46 46 45 44 44 45 43 39 41 41 41
57 58 57 56 55 54 54 53 53 52 54 53 51 51 52 53 53 54 55 55 56 57 57 58 55 51 48 49 47 46 45 46 45 43 44 44 44 43 41 41 40 41 40
55 57 57 57 54 53 53 54 54 53 52 51 51 51 52 52 53 54 55 56 56 57 56 56 53 52 49 48 44 43 39 36 42 39 42 43 43 43 41 39 39 39 39
53 55 55 56 55 55 53 52 52 52 52 51 51 52 53 53 54 55 55 55 56 55 55 53 52 52 48 46 45 41 35 32 38 34 40 40 39 39 39 40 39 37 36

GFSGL_sfc_dewp_339.txt.gz
Dewpoint
72 71 69 68 66 66 67 67 67 67 68 67 66 66 64 63 63 62 62 63 63 64 63 64 62 64 59 62 60 59 53 52 51 51 52 59 59 59 54 54 54 55 55
72 71 69 68 67 67 68 67 68 68 67 66 65 64 64 62 62 62 60 59 60 61 62 63 61 59 63 65 61 64 61 57 56 56 58 58 58 59 57 58 52 45 49
71 70 69 69 68 68 68 68 68 67 67 65 64 64 63 63 62 62 63 63 64 63 64 64 62 62 62 58 61 59 58 54 58 57 58 55 53 54 57 61 60 63 53
71 70 70 68 69 69 68 67 67 66 64 63 63 64 64 64 64 64 64 63 62 61 61 61 61 61 61 61 59 61 61 58 59 52 49 48 50 59 54 52 54 59 50
67 67 66 66 65 65 64 64 64 64 64 64 65 64 64 64 62 63 63 62 62 60 59 59 59 59 61 59 56 60 62 57 50 49 48 48 48 55 61 51 50 53 56
64 64 64 64 64 64 64 64 64 64 64 65 64 64 63 61 61 59 60 58 58 58 57 57 56 59 57 60 60 60 58 61 61 53 51 53 61 56 54 53 53 50 50
64 64 64 64 63 64 64 64 64 64 65 64 64 63 62 59 59 57 58 57 55 55 57 56 54 48 58 56 59 60 59 59 59 59 59 59 62 61 64 62 63 59 55
64 64 64 64 63 63 64 64 65 65 64 62 60 60 59 56 58 57 58 58 58 58 57 58 58 57 57 57 56 57 57 56 57 54 58 59 61 64 66 64 65 64 59
63 62 63 64 63 64 64 64 64 63 61 60 59 59 59 60 57 58 59 58 57 58 58 59 58 58 58 58 57 56 56 54 53 58 58 58 57 57 59 57 52 50 49
63 63 64 65 64 63 64 64 63 60 60 56 59 61 60 62 56 56 58 55 55 53 58 58 60 58 58 58 60 59 58 56 56 55 56 57 58 59 58 61 54 51 52
63 64 65 65 66 65 65 63 62 61 63 61 61 62 61 61 62 56 56 57 52 53 51 52 54 56 55 55 56 60 60 62 60 58 56 56 58 59 60 62 63 61 57
65 64 64 64 60 59 62 62 62 63 62 62 62 61 58 64 58 56 55 54 57 55 56 57 61 55 54 53 55 55 54 56 57 55 53 53 55 54 55 59 63 64 60
62 62 62 62 60 61 62 62 58 61 56 57 54 54 54 54 60 55 55 55 55 56 56 56 55 55 53 54 53 54 55 55 53 51 51 53 55 54 62 62 65 67 65
61 61 60 59 59 59 55 55 55 53 52 51 52 49 49 50 51 54 56 57 56 57 56 55 55 55 55 54 56 55 56 55 55 54 54 55 58 57 61 62 58 55 55
59 57 57 55 56 56 57 54 52 58 51 50 48 48 48 48 51 51 52 56 56 53 55 55 53 55 56 57 57 57 57 58 58 58 57 56 58 60 59 57 55 54 56
57 55 53 52 55 52 53 54 52 51 51 50 50 52 54 50 49 49 49 48 48 50 55 55 53 52 53 55 57 57 59 56 58 61 59 57 57 54 51 51 50 50 50
60 55 52 50 49 54 57 60 57 51 48 48 48 48 47 49 46 46 48 49 48 48 53 52 52 52 54 56 57 55 54 56 64 55 55 52 51 49 48 47 46 46 46
61 54 55 51 49 48 54 53 55 55 53 52 49 49 47 46 46 45 46 45 50 50 52 52 53 54 55 56 58 54 55 54 54 54 52 51 50 48 46 45 47 48 50
59 56 54 52 50 50 49 51 57 55 53 55 50 50 50 45 45 44 43 51 51 51 52 54 56 56 56 57 58 58 60 55 53 51 50 49 48 46 46 45 46 48 50
66 58 56 53 50 49 51 52 51 58 58 52 55 53 52 52 50 52 54 55 54 53 53 55 56 58 59 60 61 60 57 55 54 51 50 48 45 46 47 46 45 44 48
59 58 59 54 49 50 53 54 53 53 54 53 58 56 50 55 55 58 55 56 57 56 55 55 53 55 61 61 61 59 55 53 51 50 48 49 49 46 47 46 45 44 43
52 50 51 53 51 50 52 54 54 58 57 59 58 57 48 54 51 49 52 52 53 54 54 59 60 58 57 60 60 58 56 53 51 48 47 47 47 46 46 46 44 44 43
48 46 46 48 52 55 55 55 55 56 60 59 55 57 55 50 49 50 52 52 53 54 54 56 57 57 58 59 59 58 55 55 52 48 48 46 46 46 45 44 45 45 43
45 45 46 47 48 48 50 52 52 50 52 50 54 48 45 46 48 50 51 51 54 59 62 61 64 56 57 58 58 58 55 54 50 47 48 46 45 44 43 42 43 46 45
52 51 48 46 45 45 45 46 57 57 59 60 48 42 43 46 48 49 48 49 52 55 54 56 58 56 56 57 57 57 53 39 49 44 46 46 46 45 41 43 47 47 44
51 52 52 47 44 43 43 45 44 44 45 47 42 45 48 49 50 48 52 53 51 50 54 54 57 57 57 55 57 53 42 34 40 37 46 45 45 46 49 49 47 43 42

GFSGL_sfc_dewp_342.txt.gz
Dewpoint
74 73 72 70 68 66 66 66 66 66 67 68 68 67 66 65 66 65 66 64 64 65 66 64 64 65 63 63 61 60 60 61 60 57 61 61 58 56 55 58 60 60 61
73 72 71 69 68 66 67 66 67 67 68 67 67 66 65 64 65 64 62 62 63 63 64 66 64 62 64 62 62 58 61 59 60 57 58 59 60 62 59 58 57 51 57
72 72 70 70 69 67 67 68 68 68 67 66 66 64 64 64 63 64 63 62 63 64 64 65 65 65 65 64 63 63 63 61 58 60 60 62 62 60 60 61 63 61 59
71 70 69 68 69 68 68 69 69 67 67 66 65 65 64 65 64 64 65 66 65 64 64 64 64 64 63 63 61 63 60 61 61 59 57 59 58 62 61 60 60 62 60
69 69 68 68 69 70 69 66 66 65 65 65 64 64 65 66 64 66 66 65 65 64 64 64 64 65 62 63 61 63 64 63 61 60 58 59 59 60 59 59 59 59 61
66 65 65 66 66 66 65 64 64 64 65 65 65 65 65 62 62 65 65 63 64 64 63 64 63 63 61 60 59 59 59 60 62 62 59 61 62 62 62 61 59 59 57
64 64 64 64 63 64 64 64 63 63 64 65 65 65 64 65 62 62 58 63 62 62 62 62 59 53 61 60 59 59 58 58 59 60 59 60 61 62 64 62 62 61 60
64 64 64 64 64 64 63 64 65 65 64 65 64 65 65 60 59 59 57 61 64 63 63 63 62 62 62 62 61 58 59 59 57 54 57 58 61 61 63 63 63 63 63
64 64 64 64 64 63 64 64 65 65 65 64 63 64 64 60 57 57 58 58 59 63 63 63 64 63 61 58 61 60 61 61 56 58 58 59 59 59 61 61 59 58 54
64 64 65 64 64 63 64 65 66 65 63 61 62 64 62 64 55 55 57 58 59 59 61 62 61 61 59 57 62 62 61 61 61 61 58 59 59 58 58 59 55 54 53
66 66 66 66 64 65 66 65 64 64 64 64 63 64 64 64 60 54 55 60 58 57 57 57 59 56 54 55 57 63 62 63 64 64 62 62 60 59 59 58 59 57 55
66 65 66 66 65 65 66 65 65 65 65 64 65 63 62 65 60 54 54 55 59 57 58 58 61 54 53 53 55 56 56 57 60 60 59 58 58 59 59 58 61 65 62
67 66 66 66 65 64 64 64 62 64 61 61 59 58 58 59 62 56 54 54 55 56 59 58 56 55 54 54 53 54 55 58 57 56 55 56 57 57 61 62 63 66 66
65 65 64 64 63 63 62 62 60 59 57 56 57 57 56 57 61 61 58 57 56 58 58 57 56 57 57 58 59 57 57 58 57 55 55 56 62 62 63 62 60 60 59
63 61 61 59 60 60 61 58 57 59 56 57 55 56 57 57 55 53 57 59 59 57 58 59 58 58 58 57 57 56 57 58 58 57 57 59 60 62 62 63 61 60 58
61 59 57 56 57 57 57 58 55 53 51 49 49 55 59 54 48 48 47 48 50 52 58 57 56 57 56 56 56 58 57 59 59 59 59 60 60 60 60 59 59 58 56
62 58 57 54 55 57 56 57 56 54 48 47 46 46 47 49 47 46 47 48 50 50 57 57 58 58 57 58 58 57 57 61 62 61 61 61 61 60 57 57 56 54 52
64 56 60 58 55 55 56 55 55 55 55 53 48 47 46 45 44 47 47 48 53 51 54 54 55 56 56 55 55 55 59 63 63 62 61 61 59 58 56 55 53 52 52
63 60 59 57 57 58 57 59 55 56 57 59 55 51 47 45 46 46 44 56 56 54 52 53 55 55 55 56 56 61 64 61 63 62 61 60 58 56 54 52 51 47 50
62 59 58 59 55 54 53 52 54 57 58 58 56 54 59 53 53 55 53 55 56 54 52 53 55 57 58 59 61 57 53 57 61 59 58 58 57 55 50 50 50 49 51
61 60 60 59 58 57 54 51 53 55 52 57 57 57 52 59 56 56 55 54 54 53 54 55 55 56 59 59 60 60 60 63 61 58 57 55 54 51 51 49 50 50 50
60 58 59 58 58 56 53 50 55 54 57 60 62 58 49 53 56 57 57 57 56 55 56 59 58 58 58 60 62 60 59 59 58 57 56 54 53 52 52 51 50 49 48
51 53 53 54 58 56 54 52 52 54 55 59 59 55 56 55 56 56 57 58 57 57 58 58 56 61 61 61 62 62 56 58 59 58 56 53 50 50 50 50 49 48 48
50 49 47 46 49 51 53 53 53 51 54 56 58 60 58 53 52 55 57 56 53 54 55 56 59 60 59 58 56 59 62 61 60 59 58 54 51 49 49 49 48 49 48
52 50 49 50 52 55 55 50 48 53 55 59 57 56 56 55 55 54 54 54 55 57 60 61 59 59 58 59 58 58 57 48 57 54 60 55 51 48 48 46 48 50 49
52 52 53 53 61 58 56 53 46 46 54 56 56 55 53 50 52 55 59 57 53 55 57 57 59 58 61 62 60 51 42 39 45 41 55 57 52 48 48 48 49 48 48

GFSGL_sfc_dewp_348.txt.gz
Dewpoint
70 69 68 67 67 67 67 65 63 63 64 65 66 65 65 64 64 64 65 64 63 61 62 61 60 58 55 53 54 54 56 55 55 56 57 55 53 54 54 61 58 56 59
69 70 68 68 68 67 66 64 64 63 64 64 65 64 64 64 63 63 63 62 61 60 61 60 60 57 55 53 55 52 54 54 53 53 55 53 51 53 53 54 54 54 57
68 69 69 68 68 66 65 64 65 63 62 64 64 64 63 63 63 63 62 60 61 60 61 61 60 59 58 58 57 57 57 54 55 52 52 55 55 56 53 53 53 54 55
65 69 69 69 67 66 66 65 64 65 64 64 65 64 64 62 62 61 61 60 59 60 61 62 61 60 59 59 58 57 58 55 54 52 53 55 55 56 55 53 53 57 58
64 68 68 67 66 66 65 65 65 66 65 65 64 63 63 62 61 61 61 60 60 61 62 61 61 61 62 59 58 58 58 57 56 55 55 56 55 55 53 54 53 54 55
66 66 67 67 67 66 66 66 66 66 66 64 64 64 63 62 62 62 62 62 64 62 60 60 61 63 63 63 61 59 58 57 56 55 55 54 55 57 56 55 53 53 50
64 64 65 66 66 65 66 65 65 65 65 64 64 64 62 62 62 62 64 64 63 61 60 59 59 61 61 58 61 59 57 59 57 55 54 55 55 56 57 56 56 54 54
64 64 64 64 64 65 63 63 64 64 64 64 64 64 63 64 62 61 63 62 61 60 59 57 57 57 58 57 55 54 51 50 52 53 48 47 53 52 55 56 57 56 56
62 62 63 63 63 63 63 63 63 63 63 63 64 64 64 64 60 59 59 56 57 59 59 58 57 56 57 59 54 51 49 51 56 56 55 54 53 55 54 56 55 55 53
61 61 63 63 62 63 62 62 63 63 62 63 63 64 62 61 57 57 56 53 52 52 54 58 60 58 56 57 55 53 53 54 55 56 55 57 57 56 59 58 56 54 52
62 62 62 63 63 63 63 62 61 62 63 62 62 61 60 57 56 54 54 52 51 49 50 52 56 57 55 55 55 55 56 55 56 56 56 59 59 57 55 58 55 53 50
62 62 62 61 62 63 63 62 61 63 62 60 58 57 58 58 55 53 52 52 53 51 53 55 56 53 52 53 54 54 54 57 57 57 57 57 57 57 57 57 56 56 55
62 61 61 61 61 61 60 60 61 61 60 57 57 57 57 59 59 55 52 52 53 54 55 55 55 52 52 52 53 53 55 58 57 55 55 56 56 56 55 55 57 58 57
61 61 61 61 61 61 62 61 60 58 57 57 57 57 57 57 58 59 56 53 53 54 56 56 56 55 54 55 56 54 55 56 56 55 55 54 54 53 54 55 56 57 58
62 61 62 62 61 60 60 60 59 59 58 58 58 58 57 56 56 55 57 57 55 53 53 53 53 53 54 53 53 54 55 54 55 55 54 54 53 53 53 55 57 55 55
62 62 61 61 59 60 59 59 57 56 54 55 51 55 57 53 50 49 48 50 50 49 54 54 55 55 54 54 53 53 54 55 55 55 55 55 54 53 54 56 57 57 55
62 61 61 59 59 58 59 58 57 56 52 50 50 48 47 50 47 45 46 47 47 51 55 55 55 55 55 54 54 54 54 56 56 56 56 55 55 56 56 57 57 57 56
61 58 59 58 58 57 57 58 58 57 55 55 51 48 44 44 45 44 43 48 50 51 56 56 55 55 54 54 55 55 56 57 57 58 58 58 58 58 58 57 58 57 55
61 59 58 57 57 56 56 56 55 55 55 54 53 48 46 43 43 43 44 51 51 53 53 53 54 55 55 55 55 56 56 56 57 58 58 59 59 57 58 58 58 53 54
63 60 58 58 58 57 56 55 55 55 55 55 55 54 52 46 46 47 47 50 51 51 51 51 51 52 52 53 54 55 55 55 56 57 58 58 57 57 57 57 57 56 54
63 63 60 60 59 58 58 56 55 55 55 55 55 55 51 52 52 50 48 49 50 51 52 52 52 52 53 53 53 53 54 54 56 57 58 57 57 56 57 57 57 56 55
64 64 63 62 62 59 58 58 57 55 54 55 56 56 48 54 55 54 53 51 50 51 52 52 53 54 54 54 55 56 56 56 57 56 57 58 57 57 57 57 57 56 54
64 64 63 62 62 60 61 61 60 59 56 55 54 54 55 55 55 56 55 55 55 55 55 55 54 54 54 55 55 56 56 57 59 59 58 59 59 59 59 58 57 56 54
60 60 62 62 63 62 61 60 57 55 59 57 54 55 55 56 57 56 55 55 56 57 57 57 55 53 54 56 58 59 59 60 61 61 60 59 58 57 58 58 58 57 56
59 59 59 59 59 60 60 59 59 58 57 57 56 57 56 56 57 58 57 55 54 54 56 58 58 57 56 56 58 59 55 45 56 53 58 57 56 55 56 56 57 57 56
58 58 58 58 57 57 56 56 57 56 56 54 55 53 53 53 54 55 57 57 56 55 57 59 59 59 59 59 58 53 42 39 44 39 51 55 55 56 56 57 57 57 55